www.pogodaiklimat.ru

Погода и климат >> Архив погоды >> Индонезия >> Аэропорт Умбу Механг Кунда


ПОГОДА в Аэропорту Умбу Механг Кунда

  • Прогноз погоды в Аэропорту Умбу Механг Кунда
  • Монитор погоды в Аэропорту Умбу Механг Кунда

АРХИВ ПОГОДЫ в Аэропорту Умбу Механг Кунда

Время (UTC), дата Ветер
(напр.,м/с)
 
Видим.   Явления Облачность Т
(С)
Тd
(С)
f
(%)
Тe
(С)
Тes
(С)
Комфортность P
(гПа)
Po
(гПа)
Тmin
(С)
Tmax
(С)
R
(мм)
R24
(мм)
S
(см)
06 9.06 В 6 10 км 4/3 600 м
[Cu med, cong Ac trans Ci fib]
+31.4 +21.5 56 +40 +43 очень
душно
1011.5 1010.3
09 9.06 СВ 5 10 км 3/3 600 м
[Cu med, cong Ci fib]
+28.6 +22.5 70 +38 +38 очень
душно
1011.3 1010.1
12 9.06 штиль 0 5000 м 4/1 600 м
[Cu hum Ci fib]
+26.8 +22.5 77 +35 +35 очень
душно
1013.6 1012.4 +31.6
15 9.06 штиль 0 5000 м 4/1 600 м
[Cu hum Ci fib]
+24.2 +21.8 86 +31 +31 очень
душно
1013.4 1012.2
18 9.06 ЮЗ 2 5000 м 6/3 600 м
[Cu med, cong Ac trans Ci sp]
+23.2 +21.2 89 +31 +31 очень
душно
1011.8 1010.6
21 9.06 штиль 0 5000 м 8/3 600 м
[Cu med, cong Ac trans Ci sp]
+23.3 +21.1 87 +31 +31 очень
душно
1011.1 1009.9
00 10.06 штиль 0 10 км 4/3 600 м
[Cu med, cong Ac trans Ci fib]
+26.6 +22.8 80 +35 +38 очень
душно
1012.5 1011.3 +21.8
03 10.06 В 3 10 км 9/5 600 м
[Cu med, cong Ac As Ci sp]
+29.8 +21.1 60 +37 +41 очень
душно
1011.9 1010.7
06 10.06 СВ 5 10 км 3/3 600 м
[Cu med, cong Ci fib]
+30.3 +23.1 65 +40 +45 очень
душно
1009.7 1008.5
09 10.06 В 5 10 км 1/1 600 м
[Cu med, cong Ci fib]
+29.3 +22.7 68 +39 +39 очень
душно
1010.0 1008.8
12 10.06 штиль 0 5000 м 1/1 600 м
[Cu med, cong Ci fib]
+26.2 +23.0 83 +35 +35 очень
душно
1012.0 1010.8 +31.0
15 10.06 штиль 0 5000 м 1/1 600 м
[Cu hum Ci fib]
+23.4 +21.7 90 +32 +32 очень
душно
1013.0 1011.8
18 10.06 штиль 0 5000 м 1/1 600 м
[Cu hum Ci fib]
+22.7 +20.9 90 +30 +30 очень
душно
1012.7 1011.5
21 10.06 Ю 3 5000 м 1/1 600 м
[Cu hum Ci fib]
+22.6 +20.8 90 +30 +30 очень
душно
1013.0 1011.8
00 11.06 Ю 4 10 км 4/1 600 м
[Cu hum Ac trans Ci fib]
+24.6 +20.2 77 +30 +32 очень
душно
1014.4 1013.2 +21.8
03 11.06 штиль 0 10 км 6/5 600 м
[Cu med, cong Ac trans Ci fib]
+29.6 +23.7 71 +41 +49 опасность
перегрева
1013.7 1012.5
06 11.06 СВ 5 10 км 3/3 600 м
[Cu med, cong Ci fib]
+31.4 +23.9 64 +43 +47 опасность
перегрева
1011.1 1009.9
09 11.06 В 6 10 км 4/4 600 м
[Cu med, cong Ci fib]
+28.8 +22.7 70 +38 +38 очень
душно
1012.0 1010.8
12 11.06 штиль 0 5000 м 4/3 600 м
[Cu med, cong Ci sp]
+26.8 +22.3 76 +35 +35 очень
душно
1013.9 1012.7 +32.6
15 11.06 штиль 0 5000 м 3/1 600 м
[Cu hum Ci fib]
+24.2 +21.2 83 +31 +31 очень
душно
1014.4 1013.2
18 11.06 Ю 3 5000 м 5/3 600 м
[Cu med, cong Ci sp]
+22.7 +20.5 87 +29 +29 очень
душно
1013.4 1012.2
21 11.06 Ю 4 5000 м 5/3 600 м
[Cu med, cong Ci sp]
+23.2 +20.4 84 +30 +30 очень
душно
1013.1 1011.9
00 12.06 Ю 2 10 км 6/4 600 м
[Cu med, cong Ac trans Ci sp]
+23.8 +20.4 81 +29 +31 душно 1014.7 1013.5 +22.4
03 12.06 В 6 10 км 10/6 600 м
[Cu med, cong Ac trans Ci sp]
+30.0 +22.6 65 +40 +41 очень
душно
1013.9 1012.7
06 12.06 В 6 10 км 9/5 600 м
[Cu med, cong Ac trans Ci sp]
+31.1 +21.8 58 +40 +41 очень
душно
1011.3 1010.1
09 12.06 В 5 10 км 4/3 600 м
[Cu med, cong Ac trans Ci sp]
+30.4 +21.4 59 +38 +39 очень
душно
1011.6 1010.4
12 12.06 штиль 0 5000 м 10/1 600 м
[Cu med, cong Ac trans Ci sp]
+27.2 +22.9 77 +36 +36 очень
душно
1013.0 1011.8 +31.6
15 12.06 штиль 0 5000 м 10/4 600 м
[Cu med, cong Ac As Ci sp]
+25.8 +22.2 81 +34 +34 очень
душно
1013.2 1012.2
18 12.06 Ю 2 5000 м 10/4 600 м
[Cu med, cong Ac As Ci sp]
+25.2 +21.8 81 +32 +32 очень
душно
1012.0 1010.8
21 12.06 Ю 3 5000 м 9/4 600 м
[Cu med, cong Ac trans Ci sp]
+25.2 +21.6 80 +32 +32 очень
душно
1011.7 1010.5
00 13.06 штиль 0 10 км 9/1 600 м
[Cu med, cong Ac trans Ci fib]
+26.8 +22.5 77 +35 +37 очень
душно
1013.6 1012.4 +24.9
03 13.06 В 5 10 км 5/4 600 м
[Cu med, cong Ac trans Ci fib]
+31.4 +21.7 56 +40 +44 очень
душно
1012.9 1011.7
06 13.06 В 6 10 км 9/3 600 м
[Cu med, cong Ac trans Ci fib]
+32.0 +21.1 53 +40 +41 очень
душно
1010.1 1008.9
09 13.06 В 3 8000 м 10/8 600 м
[Cu med, cong Ac As Ci fib]
+30.0 +22.1 63 +39 +39 очень
душно
1010.8 1009.6
12 13.06 штиль 0 5000 м 10/3 600 м
[Cu med, cong Ac trans Ci sp]
+27.3 +21.7 72 +35 +35 очень
душно
1012.8 1011.6 +32.6
15 13.06 штиль 0 5000 м 10/3 600 м
[Cu med, cong Ac trans Ci sp]
+26.0 +22.0 79 +34 +34 очень
душно
1013.3 1012.1
18 13.06 штиль 0 5000 м 10/3 600 м
[Cu med, cong Ac trans Ci sp]
+24.6 +21.8 84 +31 +31 очень
душно
1012.3 1011.1
21 13.06 штиль 0 5000 м 9/3 600 м
[Cu med, cong Ac trans Ci sp]
+24.6 +22.2 87 +32 +32 очень
душно
1012.1 1010.9
00 14.06 штиль 0 10 км 1/1 600 м
[Cu hum Ci fib]
+25.8 +21.6 78 +33 +37 очень
душно
1013.6 1012.4 +23.6
03 14.06 В 5 10 км 9/9 600 м
[Cu med, cong Ci fib]
+29.2 +22.1 66 +38 +39 очень
душно
1013.0 1011.7
06 14.06 В 7 10 км 1/1 600 м
[Cu med, cong Ci fib]
+31.4 +20.9 54 +39 +42 очень
душно
1009.9 1008.7
09 14.06 В 6 10 км 1/1 600 м
[Cu med, cong Ci fib]
+29.6 +19.2 54 +35 +35 очень
душно
1010.7 1009.5
12 14.06 штиль 0 5000 м 1/1 600 м
[Cu hum Ci fib]
+25.2 +21.0 78 +32 +32 очень
душно
1013.2 1012.0 +32.0
15 14.06 штиль 0 5000 м 1/1 600 м
[Cu hum Ci fib]
+22.8 +19.9 84 +29 +29 очень
душно
1013.8 1012.6
18 14.06 Ю 3 5000 м 1/1 600 м
[Cu hum Ci fib]
+21.6 +19.2 86 +27 +27 душно 1013.1 1011.9
21 14.06 штиль 0 5000 м 1/1 600 м
[Cu hum Ci fib]
+21.0 +19.0 88 +25 +25 комфорт 1013.1 1011.9
00 15.06 Ю 4 10 км 1/1 600 м
[Cu hum]
+23.0 +19.5 81 +30 +32 очень
душно
1014.9 1013.7 +20.6
03 15.06 В 5 10 км 4/0 600 м
[As trans Ci fib]
+30.8 +19.7 52 +37 +43 очень
душно
1014.0 1012.8
06 15.06 В 8 10 км 3/3 600 м
[Cu hum Ci fib]
+31.4 +24.2 66 +44 +45 опасность
перегрева
1011.7 1010.5
09 15.06 В 5 10 км 3/3 600 м
[Cu hum Ci fib]
+29.6 +21.7 63 +38 +38 очень
душно
1011.1 1009.9
12 15.06 штиль 0 5000 м 1/1 600 м
[Cu hum Ci fib]
+25.9 +21.2 75 +33 +33 очень
душно
1013.4 1012.2 +32.0
15 15.06 штиль 0 5000 м 3/1 600 м
[Cu hum Ci fib]
+23.2 +20.4 84 +30 +30 очень
душно
1014.0 1012.8
18 15.06 ЮЗ 3 5000 м 3/1 600 м
[Cu med, cong Ac trans Ci fib]
+22.0 +19.8 87 +28 +28 душно 1013.2 1012.0
21 15.06 ЮЗ 4 5000 м 3/1 600 м
[Cu hum Ci fib]
+21.1 +18.8 87 +25 +25 комфорт 1013.1 1011.9
00 16.06 штиль 0 10 км 1/1 600 м
[Cu hum]
+23.6 +20.4 82 +29 +33 душно 1014.6 1013.4 +20.6

 

Местоположение метеостанции Аэропорт Умбу Механг Кунда (Индонезия): широта -9.67 долгота 120.33 высота над уровнем моря 12 м.

В архиве по умолчанию представлена погода в Аэропорту Умбу Механг Кунда за последнюю неделю. Архивные данные за месяц целиком и за предыдущие месяцы, начиная с января 2011 года, Вы можете получить, выбрав интересующий диапазон дат из раскрывающегося списка и нажав кнопку "Ввод!".


*Определитесь, кто Вы:
робот инопланетянин человек

Внимание! Время в таблицах - всемирное. Для получения местного времени необходимо прибавить поправку, которая равна 7 ч.

Смотрите также архив погоды в соседних городах и на ближайших метеорологических станциях:

Погода в Рутенге (Индонезия) (116 км)
Погода в Сабу (Индонезия) (188 км)
Погода в Биме (Индонезия) (218 км)
Погода в Маумере (Индонезия) (240 км)
Погода на Роти (Индонезия) (322 км)
Погода в Ларантуке (Индонезия) (329 км)
Погода в Сумбава-Бесаре (Индонезия) (347 км)
Погода в Купанге (Индонезия) (369 км)
Погода в Матараме (Индонезия) (486 км)
Погода на Алоре (Индонезия) (492 км)

Пояснения к столбцам:

Ветер - указаны скорость ветра в м/с - средняя за 10 мин, порывы в срок и между сроками (в фигурных скобках) и направление, откуда дует ветер: С - северный, СВ - северо-восточный, В - восточный, ЮВ - юго-восточный, Ю - южный, ЮЗ - юго-западный, З - западный, СЗ - северо-западный.
Видимость - горизонтальная дальность видимости в метрах или километрах. При видимости от 1 до 10 км при отсутствии осадков обычно наблюдается дымка, при ухудшении видимости до 1 км и менее - туман. В сухую погоду видимость может ухудшаться дымом, пылью или мглою.
Явления - указаны атмосферные явления, наблюдавшиеся в срок или в последний час перед сроком; фигурными скобками обозначены явления, наблюдавшиеся между сроками (за 1-3 часа до срока); квадратными скобками обозначены град или гололедные отложения с указанием их диаметра в мм.
Облачность - указаны через наклонную черту общая и нижняя облачность в баллах и высота нижней границы облаков в метрах; квадратными скобками обозначены формы облаков: Ci - перистые, Cs - перисто-слоистые, Cc - перисто-кучевые, Ac - высококучевые, As - высокослоистые, Sc - слоисто-кучевые, Ns - слоисто-дождевые, Cu - кучевые, Cb - кучево-дождевые. Подробнее классификацию облаков см. в Атласе облаков (PDF).
T - Температура воздуха - температура, измеренная на высоте 2 м над землей.
Td - Температура точки росы - температура, при понижении до которой содержащийся в воздухе водяной пар достигнет насыщения.
f - Относительная влажность воздуха - влажноcть воздуха, измеренная на высоте 2 м над землей.
Te - Эффективная температура - температура, которую ощущает одетый по сезону человек в тени. Характеристика душности погоды. При расчете учитывается влияние влажности воздуха и скорости ветра на теплоощущения человека.
Tes - Эффективная температура на солнце - температура, которую ощущает человек, с поправкой на солнечный нагрев. Характеристика знойности погоды. Зависит от высоты солнца над горизонтом, облачности и скорости ветра. Ночью, в пасмурную погоду, а также при ветре 12 м/с и более поправка равна нулю.
P - Атмосферное давление - приведенное к уровню моря атмосферное давление.
Po - Атмосферное давление - измеренное на уровне метеостанции атмосферное давление.
Tmin - Минимальная температура - минимум температуры воздуха на высоте 2 м над землей.
Tmax - Максимальная температура - максимум температуры воздуха на высоте 2 м над землей.
R - Количество осадков - Количество выпавших осадков за период времени, мм. При наведении курсора мыши на число - период времени, за который выпало указанное количество осадков.
R24 - Количество осадков - Количество выпавших осадков за 24 часа, мм.
S - Снежный покров - Высота снежного покрова, см. При наведении курсора мыши на число - состояние снежного покрова и степень покрытия местности в баллах.